User: anonymous   Login
Location: Squamish
(49.7000°N, 123.1500°W)
Time: 18:18:58
(UTC-07:00)
Language:

NOAA 19 - Orbit

View from above orbital plane
View from above orbital plane
View from above satellite
View from above satellite

Ground track
Ground track

The orbit data is extracted from the following two-line orbital elements,

1 33591U 09005A   17149.56416999 +.00000081 +00000-0 +68916-4 0  9999
2 33591 099.0910 116.1261 0013455 328.8188 031.2183 14.12183005428024
Epoch (UTC): 29 May 2017 13:32:24
Eccentricity: 0.0013455
inclination: 99.0910°
perigee height: 842 km
apogee height: 861 km
right ascension of ascending node: 116.1261°
argument of perigee: 328.8188°
revolutions per day: 14.12183005
mean anomaly at epoch: 31.2183°
orbit number at epoch: 42802

The dashed part of the orbit path shows where the satellite is in the earth's shadow,  

DLR